This is the latest recevied weather packets stored in our database for station/object W4FXD. If no packets are shown the sender has not sent any weather packets the latest 10 day(s).
| Time | Temp. | Humidity | Pressure | Rain* | Wind** | Luminosity | Snow |
|---|---|---|---|---|---|---|---|
| 1778134702 | 12.78° C | 99% | 1012.8 hPa | 0 mm | - | 0 W/m² | - |
| 1778134400 | 12.78° C | 99% | 1012.2 hPa | 0 mm | - | 0 W/m² | - |
| 1778134098 | 12.78° C | 99% | 1012.2 hPa | 0 mm | - | 0 W/m² | - |
| 1778133794 | 12.78° C | 99% | 1012.8 hPa | 0 mm | - | 0 W/m² | - |
| 1778133491 | 13.33° C | 99% | 1012.3 hPa | 0 mm | - | 0 W/m² | - |
| 1778133186 | 13.33° C | 99% | 1012.9 hPa | 0 mm | - | 0 W/m² | - |
| 1778132883 | 13.33° C | 99% | 1012.9 hPa | 0 mm | - | 0 W/m² | - |
| 1778132579 | 13.33° C | 99% | 1013.2 hPa | 0 mm | - | 0 W/m² | - |
| 1778132277 | 13.89° C | 99% | 1013.1 hPa | 0 mm | - | 0 W/m² | - |
| 1778131974 | 13.89° C | 99% | 1013.2 hPa | 0 mm | - | 0 W/m² | - |
| 1778131673 | 13.89° C | 99% | 1013.4 hPa | 0 mm | - | 0 W/m² | - |
| 1778131369 | 14.44° C | 99% | 1013.3 hPa | 1.78 mm | - | 0 W/m² | - |
| 1778131067 | 14.44° C | 99% | 1013.4 hPa | 3.05 mm | - | 0 W/m² | - |
| 1778130763 | 14.44° C | 99% | 1013.2 hPa | 3.05 mm | - | 0 W/m² | - |
| 1778130460 | 14.44° C | 99% | 1013 hPa | 4.32 mm | - | 0 W/m² | - |
| 1778130157 | 15° C | 99% | 1013.5 hPa | 4.32 mm | - | 0 W/m² | - |
| 1778129854 | 15° C | 99% | 1013.1 hPa | 3.05 mm | - | 0 W/m² | - |
| 1778129550 | 15° C | 99% | 1013.3 hPa | 1.78 mm | - | 0 W/m² | - |
| 1778129248 | 15° C | 99% | 1013.2 hPa | 1.78 mm | - | 0 W/m² | - |
| 1778128944 | 15° C | 99% | 1013.1 hPa | 3.05 mm | - | 0 W/m² | - |
| 1778128640 | 15° C | 99% | 1012.7 hPa | 6.1 mm | - | 0 W/m² | - |
| 1778128337 | 15.56° C | 99% | 1012.8 hPa | 6.1 mm | - | 0 W/m² | - |
| 1778128034 | 15.56° C | 99% | 1012.7 hPa | 1.27 mm | - | 0 W/m² | - |
| 1778127728 | 15° C | 99% | 1012.7 hPa | 0 mm | - | 0 W/m² | - |
| 1778127426 | 15° C | 99% | 1012.9 hPa | 0 mm | - | 0 W/m² | - |
* Rain latest hour (hover to see other rain measurements)
** Current wind speed in m/s (hover to see current wind gust speed)